VKG1858 ESGG-LEPA

Flight info

Callsign VKG1858
Flight time 3h 11m
Altitude 39000
Route VADIN DCT ROSBI DCT RAXLU DCT ROBEG DCT LARBU DCT BOMBI DCT GIGET DCT ABUKA DCT KRH DCT NATOR DCT LUTIX DCT BENOT DCT NEMOS DCT GEVEA DCT INCUS DCT BALSI DCT RETNO DCT TUPOX DCT MTG DCT DIVKO DCT VATIR DCT PIVUS DCT BODEQ DCT VERSO DCT LUNIK
Aircraft A321/M-SDE2E3FGHIJ1RWXYZ/LB2

Departure

Time 2026-05-05 16:09
Airport Göteborg Landvetter Airport (ESGG)

Arrival

Time 2026-05-05 19:21
Airport Palma de Mallorca Airport (LEPA)
Time Latitude Longitude Altitude Speed Heading
2026-05-05 15:37 57.66973 12.29495 516 ft 0 kts 116°
2026-05-05 16:00 57.66980 12.29468 516 ft 4 kts 116°
2026-05-05 16:00 57.66991 12.29426 516 ft 2 kts 116°
2026-05-05 16:00 57.67003 12.29393 516 ft 4 kts 157°
2026-05-05 16:00 57.67024 12.29394 516 ft 2 kts 206°
2026-05-05 16:01 57.67027 12.29396 516 ft 0 kts 206°
2026-05-05 16:03 57.67011 12.29382 516 ft 10 kts 205°
2026-05-05 16:03 57.66969 12.29311 516 ft 4 kts 304°
2026-05-05 16:04 57.67000 12.29225 516 ft 12 kts 287°
2026-05-05 16:04 57.66966 12.29117 516 ft 10 kts 209°
2026-05-05 16:04 57.66907 12.29064 516 ft 9 kts 205°
2026-05-05 16:04 57.66846 12.29006 516 ft 10 kts 216°
2026-05-05 16:05 57.66844 12.28884 513 ft 17 kts 327°
2026-05-05 16:05 57.66978 12.28956 514 ft 23 kts 26°
2026-05-05 16:05 57.67118 12.29084 514 ft 22 kts 26°
2026-05-05 16:05 57.67249 12.29203 515 ft 20 kts 26°
2026-05-05 16:06 57.67371 12.29312 515 ft 19 kts 25°
2026-05-05 16:06 57.67454 12.29293 515 ft 12 kts 296°
2026-05-05 16:06 57.67457 12.29263 515 ft 0 kts 272°
2026-05-05 16:07 57.67457 12.29180 514 ft 11 kts 267°
2026-05-05 16:08 57.67435 12.29054 515 ft 9 kts 245°
2026-05-05 16:08 57.67390 12.28986 515 ft 8 kts 210°
2026-05-05 16:08 57.67372 12.28971 515 ft 0 kts 204°
2026-05-05 16:08 57.67287 12.28896 515 ft 40 kts 205°
2026-05-05 16:09 57.66816 12.28461 513 ft 107 kts 206°
2026-05-05 16:09 57.65989 12.27715 508 ft 158 kts 205°
2026-05-05 16:09 57.64902 12.26767 811 ft 176 kts 208°
2026-05-05 16:09 57.63848 12.25806 1755 ft 166 kts 211°
2026-05-05 16:10 57.62787 12.24807 2321 ft 175 kts 210°
2026-05-05 16:10 57.61663 12.23786 2743 ft 187 kts 210°
2026-05-05 16:10 57.60333 12.23063 2900 ft 213 kts 191°
2026-05-05 16:10 57.58765 12.22750 3133 ft 239 kts 186°
2026-05-05 16:11 57.57030 12.22552 3482 ft 261 kts 185°
2026-05-05 16:11 57.51464 12.21767 5821 ft 272 kts 190°
2026-05-05 16:12 57.49571 12.21385 6647 ft 275 kts 191°
2026-05-05 16:12 57.45735 12.20537 8184 ft 279 kts 197°
2026-05-05 16:13 57.41028 12.15172 10257 ft 274 kts 232°
2026-05-05 16:13 57.39650 12.12531 10405 ft 297 kts 232°
2026-05-05 16:13 57.38162 12.09701 10670 ft 313 kts 231°
2026-05-05 16:14 57.35058 12.03892 11997 ft 319 kts 230°
2026-05-05 16:14 57.31902 11.98017 13357 ft 324 kts 230°
2026-05-05 16:15 57.28733 11.92119 14641 ft 327 kts 229°
2026-05-05 16:15 57.26034 11.87094 15635 ft 331 kts 230°
2026-05-05 16:16 57.23850 11.83003 16406 ft 334 kts 230°
2026-05-05 16:16 57.20546 11.76868 17548 ft 339 kts 229°
2026-05-05 16:17 57.17204 11.70707 18595 ft 344 kts 229°
2026-05-05 16:17 57.15500 11.67589 19067 ft 348 kts 227°
2026-05-05 16:18 57.11275 11.62914 19953 ft 367 kts 205°
2026-05-05 16:18 57.08826 11.61512 20378 ft 371 kts 203°
2026-05-05 16:18 57.03836 11.58692 21272 ft 376 kts 203°
2026-05-05 16:19 57.01335 11.57276 21722 ft 379 kts 203°
2026-05-05 16:19 56.98810 11.55846 22167 ft 381 kts 203°
2026-05-05 16:19 56.93707 11.52960 23033 ft 386 kts 203°
2026-05-05 16:20 56.88579 11.50067 23817 ft 391 kts 203°
2026-05-05 16:20 56.83365 11.47129 24502 ft 394 kts 203°
2026-05-05 16:21 56.78099 11.44164 25213 ft 398 kts 203°
2026-05-05 16:22 56.70107 11.39680 26231 ft 403 kts 203°
2026-05-05 16:22 56.64712 11.36670 26885 ft 407 kts 203°
2026-05-05 16:23 56.59301 11.33667 27492 ft 411 kts 203°
2026-05-05 16:23 56.56561 11.32146 27819 ft 413 kts 203°
2026-05-05 16:23 56.51041 11.29088 28433 ft 416 kts 203°
2026-05-05 16:24 56.48265 11.27551 28724 ft 418 kts 203°
2026-05-05 16:24 56.45480 11.26011 29009 ft 420 kts 203°
2026-05-05 16:24 56.39863 11.22921 29577 ft 424 kts 203°
2026-05-05 16:25 56.37034 11.21371 29870 ft 425 kts 203°
2026-05-05 16:25 56.31354 11.18274 30398 ft 427 kts 202°
2026-05-05 16:25 56.28518 11.16730 30730 ft 426 kts 202°
2026-05-05 16:26 56.22887 11.13655 31394 ft 425 kts 202°
2026-05-05 16:26 56.17242 11.10568 32052 ft 424 kts 202°
2026-05-05 16:27 56.14418 11.09039 32376 ft 423 kts 202°
2026-05-05 16:27 56.11601 11.07516 32704 ft 423 kts 202°
2026-05-05 16:27 56.08784 11.05996 33025 ft 423 kts 202°
2026-05-05 16:27 56.05968 11.04477 33298 ft 423 kts 201°
2026-05-05 16:28 56.03153 11.02960 33590 ft 423 kts 201°
2026-05-05 16:28 56.00338 11.01449 33887 ft 423 kts 201°
2026-05-05 16:28 55.97521 10.99939 34160 ft 422 kts 201°
2026-05-05 16:28 55.94709 10.98432 34399 ft 422 kts 201°
2026-05-05 16:29 55.91892 10.96923 34634 ft 422 kts 201°
2026-05-05 16:29 55.89116 10.95437 34858 ft 422 kts 201°
2026-05-05 16:29 55.86304 10.93934 35084 ft 422 kts 201°
2026-05-05 16:29 55.83489 10.92414 35304 ft 422 kts 202°
2026-05-05 16:30 55.80698 10.90811 35499 ft 422 kts 202°
2026-05-05 16:30 55.77918 10.89139 35680 ft 422 kts 203°
2026-05-05 16:30 55.75142 10.87437 35887 ft 422 kts 203°
2026-05-05 16:30 55.72368 10.85736 36096 ft 422 kts 203°
2026-05-05 16:31 55.69589 10.84047 36299 ft 422 kts 202°
2026-05-05 16:31 55.66809 10.82377 36493 ft 422 kts 202°
2026-05-05 16:31 55.64025 10.80722 36685 ft 422 kts 202°
2026-05-05 16:31 55.61275 10.79099 36876 ft 422 kts 202°
2026-05-05 16:32 55.55698 10.75823 36944 ft 422 kts 202°
2026-05-05 16:32 55.50122 10.72557 36953 ft 422 kts 202°
2026-05-05 16:33 55.44548 10.69292 36951 ft 422 kts 202°
2026-05-05 16:33 55.38976 10.66029 36945 ft 422 kts 202°
2026-05-05 16:34 55.33429 10.62794 36948 ft 422 kts 202°
2026-05-05 16:34 55.27857 10.59559 36948 ft 423 kts 202°
2026-05-05 16:35 55.22267 10.56317 36946 ft 423 kts 202°
2026-05-05 16:35 55.16675 10.53083 36943 ft 423 kts 201°
2026-05-05 16:36 55.11079 10.49863 36941 ft 423 kts 201°
2026-05-05 16:36 55.05483 10.46653 36936 ft 423 kts 201°
2026-05-05 16:37 54.99924 10.43465 36942 ft 424 kts 201°
2026-05-05 16:37 54.94322 10.40255 36942 ft 424 kts 201°
2026-05-05 16:38 54.88718 10.37071 36931 ft 424 kts 201°
2026-05-05 16:38 54.83108 10.33900 36934 ft 424 kts 201°
2026-05-05 16:39 54.77509 10.30733 36933 ft 423 kts 201°
2026-05-05 16:39 54.71918 10.27567 36931 ft 423 kts 201°
2026-05-05 16:40 54.66280 10.24842 36935 ft 424 kts 198°
2026-05-05 16:40 54.60526 10.22504 36939 ft 425 kts 197°
2026-05-05 16:41 54.54774 10.20190 36943 ft 423 kts 198°
2026-05-05 16:41 54.49063 10.17795 36945 ft 422 kts 198°
2026-05-05 16:42 54.43409 10.15375 36947 ft 422 kts 198°
2026-05-05 16:42 54.37716 10.12936 36947 ft 422 kts 198°
2026-05-05 16:43 54.32018 10.10528 36926 ft 421 kts 198°
2026-05-05 16:43 54.26336 10.08155 36945 ft 420 kts 198°
2026-05-05 16:44 54.23502 10.06974 37069 ft 419 kts 198°
2026-05-05 16:44 54.20667 10.05789 37270 ft 419 kts 198°
2026-05-05 16:44 54.17836 10.04601 37437 ft 419 kts 198°
2026-05-05 16:44 54.15000 10.03408 37593 ft 420 kts 198°
2026-05-05 16:45 54.12206 10.02235 37722 ft 420 kts 198°
2026-05-05 16:45 54.09368 10.01044 37865 ft 420 kts 198°
2026-05-05 16:45 54.06528 9.99858 38003 ft 420 kts 198°
2026-05-05 16:45 54.03692 9.98680 38191 ft 419 kts 198°
2026-05-05 16:46 54.00863 9.97506 38341 ft 419 kts 198°
2026-05-05 16:46 53.98029 9.96334 38482 ft 419 kts 197°
2026-05-05 16:46 53.95201 9.95165 38611 ft 418 kts 197°
2026-05-05 16:46 53.92376 9.93997 38722 ft 418 kts 197°
2026-05-05 16:47 53.89555 9.92834 38862 ft 416 kts 197°
2026-05-05 16:47 53.86742 9.91677 38914 ft 418 kts 197°
2026-05-05 16:47 53.81108 9.89357 38916 ft 419 kts 197°
2026-05-05 16:48 53.75449 9.87029 38919 ft 418 kts 197°
2026-05-05 16:48 53.69795 9.84718 38920 ft 418 kts 197°
2026-05-05 16:49 53.64135 9.82414 38920 ft 418 kts 197°
2026-05-05 16:49 53.58512 9.80136 38909 ft 419 kts 197°
2026-05-05 16:50 53.52834 9.77836 38903 ft 421 kts 197°
2026-05-05 16:50 53.47133 9.75522 38906 ft 422 kts 197°
2026-05-05 16:51 53.41410 9.73207 38900 ft 424 kts 197°
2026-05-05 16:51 53.35673 9.70907 38907 ft 424 kts 197°
2026-05-05 16:52 53.29972 9.68625 38905 ft 424 kts 197°
2026-05-05 16:52 53.24229 9.66326 38915 ft 424 kts 197°
2026-05-05 16:53 53.18494 9.64030 38922 ft 424 kts 197°
2026-05-05 16:53 53.12752 9.61738 38925 ft 424 kts 197°
2026-05-05 16:54 53.07010 9.59461 38929 ft 424 kts 197°
2026-05-05 16:54 53.02238 9.57572 38923 ft 424 kts 197°
2026-05-05 16:55 52.95564 9.54946 38918 ft 424 kts 197°
2026-05-05 16:55 52.89829 9.52683 38916 ft 424 kts 197°
2026-05-05 16:56 52.85059 9.50810 38904 ft 424 kts 197°
2026-05-05 16:56 52.79327 9.48575 38915 ft 423 kts 197°
2026-05-05 16:57 52.73600 9.46339 38914 ft 423 kts 197°
2026-05-05 16:57 52.67876 9.44098 38898 ft 422 kts 197°
2026-05-05 16:58 52.62155 9.41870 38889 ft 422 kts 197°
2026-05-05 16:58 52.56441 9.39663 38886 ft 422 kts 196°
2026-05-05 16:59 52.50771 9.37474 38905 ft 421 kts 197°
2026-05-05 16:59 52.45076 9.35273 38898 ft 421 kts 196°
2026-05-05 17:00 52.39371 9.33081 38879 ft 421 kts 196°
2026-05-05 17:00 52.33675 9.30901 38888 ft 420 kts 196°
2026-05-05 17:01 52.27995 9.28731 38889 ft 419 kts 196°
2026-05-05 17:01 52.22331 9.26722 38889 ft 420 kts 191°
2026-05-05 17:02 52.16534 9.25444 38889 ft 421 kts 191°
2026-05-05 17:02 52.10740 9.24174 38884 ft 420 kts 190°
2026-05-05 17:03 52.04964 9.22901 38886 ft 419 kts 190°
2026-05-05 17:03 51.99189 9.21641 38876 ft 418 kts 190°
2026-05-05 17:04 51.93427 9.20379 38875 ft 418 kts 190°
2026-05-05 17:04 51.87668 9.19122 38874 ft 418 kts 190°
2026-05-05 17:05 51.81953 9.17856 38862 ft 417 kts 190°
2026-05-05 17:05 51.76203 9.16568 38861 ft 417 kts 190°
2026-05-05 17:06 51.70459 9.15285 38854 ft 417 kts 190°
2026-05-05 17:06 51.64712 9.14004 38854 ft 417 kts 190°
2026-05-05 17:07 51.58963 9.12735 38849 ft 417 kts 190°
2026-05-05 17:07 51.53256 9.11483 38841 ft 417 kts 190°
2026-05-05 17:08 51.47507 9.10220 38843 ft 417 kts 190°
2026-05-05 17:08 51.41762 9.08954 38835 ft 417 kts 189°
2026-05-05 17:09 51.36014 9.07694 38835 ft 416 kts 189°
2026-05-05 17:09 51.30275 9.06444 38833 ft 416 kts 189°
2026-05-05 17:10 51.24571 9.05201 38834 ft 416 kts 189°
2026-05-05 17:10 51.18835 9.03954 38835 ft 416 kts 189°
2026-05-05 17:11 51.13095 9.02725 38825 ft 416 kts 189°
2026-05-05 17:11 51.07358 9.01500 38828 ft 416 kts 189°
2026-05-05 17:12 51.01623 9.00258 38830 ft 416 kts 189°
2026-05-05 17:12 50.95926 8.99024 38820 ft 416 kts 189°
2026-05-05 17:13 50.90185 8.97796 38830 ft 416 kts 189°
2026-05-05 17:13 50.84447 8.96570 38827 ft 416 kts 189°
2026-05-05 17:14 50.78705 8.95351 38823 ft 416 kts 189°
2026-05-05 17:14 50.72958 8.94132 38824 ft 416 kts 189°
2026-05-05 17:15 50.67256 8.92920 38836 ft 417 kts 189°
2026-05-05 17:15 50.61511 8.91707 38829 ft 417 kts 189°
2026-05-05 17:16 50.55766 8.90501 38828 ft 417 kts 189°
2026-05-05 17:16 50.50020 8.89280 38824 ft 417 kts 189°
2026-05-05 17:17 50.44270 8.88066 38826 ft 417 kts 189°
2026-05-05 17:17 50.38517 8.86853 38827 ft 417 kts 189°
2026-05-05 17:18 50.32760 8.85642 38829 ft 417 kts 189°
2026-05-05 17:18 50.27043 8.84459 38834 ft 418 kts 188°
2026-05-05 17:19 50.21271 8.83268 38841 ft 418 kts 188°
2026-05-05 17:19 50.15493 8.82066 38840 ft 419 kts 189°
2026-05-05 17:20 50.09717 8.80859 38847 ft 419 kts 188°
2026-05-05 17:20 50.03935 8.79675 38844 ft 419 kts 188°
2026-05-05 17:21 49.98143 8.78477 38839 ft 420 kts 188°
2026-05-05 17:22 49.89494 8.76669 38845 ft 420 kts 189°
2026-05-05 17:22 49.83697 8.75462 38842 ft 421 kts 188°
2026-05-05 17:23 49.77886 8.74265 38844 ft 421 kts 188°
2026-05-05 17:23 49.72076 8.73076 38844 ft 421 kts 188°
2026-05-05 17:24 49.66298 8.71893 38844 ft 422 kts 188°
2026-05-05 17:24 49.60474 8.70716 38848 ft 422 kts 188°
2026-05-05 17:25 49.54652 8.69554 38849 ft 422 kts 188°
2026-05-05 17:25 49.48836 8.68389 38852 ft 422 kts 188°
2026-05-05 17:26 49.43058 8.67231 38856 ft 422 kts 188°
2026-05-05 17:26 49.37241 8.66047 38853 ft 421 kts 188°
2026-05-05 17:27 49.31429 8.64866 38852 ft 421 kts 188°
2026-05-05 17:27 49.25614 8.63693 38851 ft 421 kts 188°
2026-05-05 17:28 49.19800 8.62526 38849 ft 421 kts 188°
2026-05-05 17:28 49.14010 8.61364 38850 ft 421 kts 188°
2026-05-05 17:29 49.08221 8.60203 38851 ft 421 kts 188°
2026-05-05 17:29 49.02415 8.59049 38851 ft 421 kts 188°
2026-05-05 17:30 48.96625 8.57765 38847 ft 420 kts 192°
2026-05-05 17:30 48.90944 8.55927 38850 ft 420 kts 194°
2026-05-05 17:31 48.85257 8.53917 38850 ft 420 kts 193°
2026-05-05 17:31 48.79557 8.52008 38850 ft 420 kts 193°
2026-05-05 17:32 48.73847 8.50175 38849 ft 420 kts 193°
2026-05-05 17:32 48.68170 8.48371 38849 ft 420 kts 193°
2026-05-05 17:33 48.62452 8.46553 38853 ft 420 kts 193°
2026-05-05 17:33 48.56737 8.44729 38852 ft 420 kts 193°
2026-05-05 17:34 48.51029 8.42901 38851 ft 420 kts 193°
2026-05-05 17:34 48.45355 8.41081 38851 ft 420 kts 193°
2026-05-05 17:35 48.39644 8.39266 38857 ft 420 kts 193°
2026-05-05 17:35 48.33931 8.37458 38854 ft 420 kts 193°
2026-05-05 17:36 48.28214 8.35655 38856 ft 420 kts 193°
2026-05-05 17:36 48.22502 8.33859 38863 ft 420 kts 193°
2026-05-05 17:37 48.16914 8.31617 38865 ft 418 kts 204°
2026-05-05 17:37 48.11912 8.27215 38861 ft 418 kts 212°
2026-05-05 17:38 48.07027 8.22488 38868 ft 418 kts 212°
2026-05-05 17:38 48.02130 8.17772 38864 ft 419 kts 212°
2026-05-05 17:39 47.97262 8.13091 38871 ft 419 kts 212°
2026-05-05 17:39 47.92356 8.08393 38875 ft 419 kts 212°
2026-05-05 17:40 47.87443 8.03706 38879 ft 419 kts 212°
2026-05-05 17:40 47.82525 7.99034 38881 ft 419 kts 212°
2026-05-05 17:41 47.77646 7.94386 38889 ft 419 kts 212°
2026-05-05 17:41 47.72734 7.89706 38891 ft 419 kts 212°
2026-05-05 17:42 47.67819 7.85056 38902 ft 419 kts 212°
2026-05-05 17:42 47.62917 7.80420 38905 ft 418 kts 212°
2026-05-05 17:43 47.57940 7.75715 38907 ft 418 kts 212°
2026-05-05 17:43 47.53136 7.71199 38903 ft 418 kts 212°
2026-05-05 17:44 47.48236 7.66609 38907 ft 417 kts 212°
2026-05-05 17:44 47.43345 7.62026 38908 ft 416 kts 212°
2026-05-05 17:45 47.38455 7.57457 38906 ft 416 kts 212°
2026-05-05 17:45 47.33603 7.52929 38890 ft 415 kts 213°
2026-05-05 17:46 47.28718 7.48382 38902 ft 415 kts 213°
2026-05-05 17:46 47.23826 7.43842 38916 ft 416 kts 212°
2026-05-05 17:47 47.18927 7.39303 38909 ft 416 kts 213°
2026-05-05 17:47 47.14666 7.33694 38900 ft 416 kts 231°
2026-05-05 17:48 47.11073 7.27020 38900 ft 417 kts 231°
2026-05-05 17:48 47.07458 7.20360 38906 ft 417 kts 230°
2026-05-05 17:49 47.03828 7.13711 38919 ft 418 kts 230°
2026-05-05 17:49 47.00197 7.07063 38910 ft 418 kts 230°
2026-05-05 17:50 46.96584 7.00465 38908 ft 418 kts 230°
2026-05-05 17:50 46.92943 6.93838 38910 ft 418 kts 231°
2026-05-05 17:51 46.88851 6.87842 38899 ft 418 kts 219°
2026-05-05 17:51 46.84335 6.82476 38894 ft 419 kts 219°
2026-05-05 17:52 46.79856 6.77140 38897 ft 419 kts 219°
2026-05-05 17:52 46.75333 6.71757 38891 ft 420 kts 219°
2026-05-05 17:53 46.70803 6.66386 38908 ft 420 kts 219°
2026-05-05 17:53 46.66270 6.61030 38917 ft 420 kts 219°
2026-05-05 17:54 46.61763 6.55721 38933 ft 420 kts 219°
2026-05-05 17:54 46.57225 6.50376 38935 ft 420 kts 219°
2026-05-05 17:55 46.52689 6.45045 38957 ft 419 kts 219°
2026-05-05 17:55 46.48142 6.39719 38945 ft 420 kts 219°
2026-05-05 17:56 46.43597 6.34389 38936 ft 420 kts 219°
2026-05-05 17:56 46.39071 6.29105 38929 ft 421 kts 219°
2026-05-05 17:57 46.34505 6.23801 38910 ft 421 kts 219°
2026-05-05 17:57 46.29947 6.18503 38907 ft 420 kts 219°
2026-05-05 17:58 46.25062 6.13893 38907 ft 422 kts 204°
2026-05-05 17:58 46.19403 6.11883 38899 ft 424 kts 191°
2026-05-05 17:59 46.13563 6.10604 38898 ft 425 kts 191°
2026-05-05 17:59 46.07717 6.09295 38902 ft 425 kts 191°
2026-05-05 18:00 46.01865 6.07994 38898 ft 426 kts 191°
2026-05-05 18:00 45.96060 6.06717 38915 ft 424 kts 191°
2026-05-05 18:01 45.90249 6.05434 38923 ft 422 kts 191°
2026-05-05 18:01 45.84456 6.04156 38921 ft 420 kts 191°
2026-05-05 18:02 45.78678 6.02876 38922 ft 420 kts 192°
2026-05-05 18:02 45.72934 6.01607 38928 ft 418 kts 192°
2026-05-05 18:03 45.67220 6.00350 38915 ft 416 kts 192°
2026-05-05 18:03 45.61498 5.99098 38905 ft 416 kts 192°
2026-05-05 18:04 45.55779 5.97848 38903 ft 416 kts 192°
2026-05-05 18:04 45.50056 5.96595 38905 ft 416 kts 192°
2026-05-05 18:05 45.44395 5.95208 38907 ft 415 kts 194°
2026-05-05 18:05 45.38770 5.93416 38899 ft 414 kts 196°
2026-05-05 18:06 45.33153 5.91540 38901 ft 415 kts 196°
2026-05-05 18:06 45.27522 5.89739 38911 ft 415 kts 195°
2026-05-05 18:07 45.21904 5.88006 38903 ft 416 kts 195°
2026-05-05 18:07 45.16253 5.86272 38907 ft 416 kts 195°
2026-05-05 18:08 45.10601 5.84525 38909 ft 416 kts 195°
2026-05-05 18:08 45.04947 5.82770 38922 ft 416 kts 195°
2026-05-05 18:09 44.99302 5.81024 38931 ft 416 kts 195°
2026-05-05 18:09 44.93695 5.79297 38931 ft 415 kts 195°
2026-05-05 18:10 44.88054 5.77574 38938 ft 414 kts 195°
2026-05-05 18:10 44.82427 5.75852 38935 ft 414 kts 195°
2026-05-05 18:11 44.76808 5.74134 38937 ft 413 kts 195°
2026-05-05 18:11 44.71240 5.72430 38937 ft 412 kts 196°
2026-05-05 18:12 44.65633 5.70723 38955 ft 412 kts 195°
2026-05-05 18:12 44.60023 5.69017 38937 ft 412 kts 195°
2026-05-05 18:13 44.54406 5.67310 38941 ft 413 kts 195°
2026-05-05 18:13 44.48820 5.65620 38936 ft 414 kts 195°
2026-05-05 18:14 44.43196 5.63927 38936 ft 413 kts 195°
2026-05-05 18:14 44.37599 5.62104 38928 ft 411 kts 202°
2026-05-05 18:15 44.32282 5.59213 38940 ft 410 kts 204°
2026-05-05 18:15 44.27003 5.56319 38922 ft 410 kts 204°
2026-05-05 18:16 44.21683 5.53414 38935 ft 411 kts 204°
2026-05-05 18:16 44.16364 5.50514 38930 ft 411 kts 204°
2026-05-05 18:17 44.11042 5.47609 38939 ft 411 kts 204°
2026-05-05 18:17 44.05715 5.44712 38931 ft 411 kts 204°
2026-05-05 18:18 44.00422 5.41852 38934 ft 411 kts 204°
2026-05-05 18:18 43.95094 5.38974 38940 ft 411 kts 204°
2026-05-05 18:19 43.89772 5.36083 38919 ft 411 kts 205°
2026-05-05 18:19 43.84449 5.33210 38933 ft 411 kts 205°
2026-05-05 18:20 43.79161 5.30359 38941 ft 411 kts 204°
2026-05-05 18:20 43.73828 5.27485 38938 ft 411 kts 204°
2026-05-05 18:21 43.68495 5.24621 38924 ft 411 kts 205°
2026-05-05 18:21 43.63161 5.21766 38933 ft 411 kts 205°
2026-05-05 18:22 43.57832 5.18919 38938 ft 410 kts 205°
2026-05-05 18:22 43.52546 5.16090 38940 ft 410 kts 205°
2026-05-05 18:23 43.47224 5.13251 38933 ft 410 kts 205°
2026-05-05 18:23 43.41902 5.10430 38936 ft 410 kts 205°
2026-05-05 18:24 43.36830 5.07007 38935 ft 404 kts 217°
2026-05-05 18:24 43.32208 5.02616 38934 ft 404 kts 217°
2026-05-05 18:25 43.27606 4.98283 38923 ft 404 kts 217°
2026-05-05 18:25 43.22972 4.93937 38942 ft 404 kts 217°
2026-05-05 18:26 43.18328 4.89584 38926 ft 405 kts 217°
2026-05-05 18:26 43.13679 4.85228 38922 ft 405 kts 217°
2026-05-05 18:27 43.09052 4.80897 38922 ft 405 kts 217°
2026-05-05 18:27 43.04326 4.76699 38931 ft 406 kts 212°
2026-05-05 18:28 42.96926 4.71088 38933 ft 405 kts 212°
2026-05-05 18:28 42.91994 4.67352 38916 ft 405 kts 212°
2026-05-05 18:29 42.87106 4.63658 38928 ft 404 kts 212°
2026-05-05 18:29 42.82192 4.59955 38930 ft 403 kts 212°
2026-05-05 18:30 42.77285 4.56268 38949 ft 403 kts 212°
2026-05-05 18:30 42.72375 4.52581 38929 ft 404 kts 212°
2026-05-05 18:31 42.67489 4.48909 38919 ft 404 kts 212°
2026-05-05 18:31 42.62559 4.45215 38913 ft 405 kts 212°
2026-05-05 18:32 42.57625 4.41517 38915 ft 405 kts 212°
2026-05-05 18:32 42.52689 4.37821 38893 ft 405 kts 212°
2026-05-05 18:33 42.47753 4.34147 38918 ft 404 kts 212°
2026-05-05 18:33 42.42862 4.30517 38917 ft 403 kts 212°
2026-05-05 18:34 42.37944 4.26877 38921 ft 402 kts 212°
2026-05-05 18:34 42.33039 4.23239 38917 ft 402 kts 212°
2026-05-05 18:35 42.28139 4.19611 38906 ft 401 kts 212°
2026-05-05 18:35 42.23284 4.16028 38918 ft 400 kts 212°
2026-05-05 18:36 42.18399 4.12424 38919 ft 400 kts 212°
2026-05-05 18:36 42.13525 4.08829 38919 ft 399 kts 212°
2026-05-05 18:37 42.08647 4.05250 38900 ft 399 kts 212°
2026-05-05 18:37 42.03772 4.01687 38905 ft 399 kts 212°
2026-05-05 18:38 41.98932 3.98152 38907 ft 398 kts 212°
2026-05-05 18:38 41.94061 3.94606 38911 ft 399 kts 210°
2026-05-05 18:39 41.88678 3.92500 38880 ft 409 kts 195°
2026-05-05 18:39 41.83105 3.91217 38885 ft 409 kts 196°
2026-05-05 18:40 41.77490 3.89920 38892 ft 410 kts 195°
2026-05-05 18:40 41.71871 3.88629 38896 ft 410 kts 195°
2026-05-05 18:41 41.66251 3.87333 38889 ft 410 kts 196°
2026-05-05 18:41 41.60625 3.86043 38895 ft 410 kts 196°
2026-05-05 18:42 41.55038 3.84771 38897 ft 410 kts 196°
2026-05-05 18:42 41.49406 3.83490 38871 ft 410 kts 196°
2026-05-05 18:43 41.43782 3.82195 38775 ft 410 kts 196°
2026-05-05 18:43 41.40975 3.81548 38548 ft 408 kts 196°
2026-05-05 18:43 41.38179 3.80907 38287 ft 407 kts 196°
2026-05-05 18:44 41.35445 3.80288 38017 ft 400 kts 196°
2026-05-05 18:44 41.32730 3.79678 37737 ft 393 kts 196°
2026-05-05 18:44 41.30054 3.79072 37463 ft 387 kts 196°
2026-05-05 18:44 41.27421 3.78474 37178 ft 381 kts 197°
2026-05-05 18:45 41.24823 3.77881 36911 ft 376 kts 197°
2026-05-05 18:45 41.22260 3.77297 36648 ft 372 kts 197°
2026-05-05 18:45 41.19722 3.76721 36387 ft 368 kts 197°
2026-05-05 18:45 41.17217 3.76149 36137 ft 363 kts 198°
2026-05-05 18:46 41.14825 3.75388 35882 ft 354 kts 204°
2026-05-05 18:46 41.12550 3.74277 35636 ft 347 kts 207°
2026-05-05 18:46 41.10309 3.73109 35384 ft 343 kts 207°
2026-05-05 18:46 41.08095 3.71969 35138 ft 339 kts 207°
2026-05-05 18:47 41.05910 3.70847 34857 ft 335 kts 207°
2026-05-05 18:47 41.03749 3.69738 34614 ft 331 kts 207°
2026-05-05 18:47 41.01614 3.68641 34367 ft 327 kts 207°
2026-05-05 18:47 40.99504 3.67558 34123 ft 323 kts 207°
2026-05-05 18:48 40.97421 3.66491 33915 ft 320 kts 207°
2026-05-05 18:48 40.95384 3.65446 33638 ft 317 kts 207°
2026-05-05 18:48 40.93337 3.64397 33358 ft 314 kts 207°
2026-05-05 18:48 40.91312 3.63356 33095 ft 312 kts 207°
2026-05-05 18:49 40.89292 3.62318 32827 ft 310 kts 207°
2026-05-05 18:49 40.87285 3.61286 32563 ft 309 kts 207°
2026-05-05 18:49 40.85287 3.60262 32285 ft 307 kts 207°
2026-05-05 18:49 40.83302 3.59245 32014 ft 306 kts 207°
2026-05-05 18:50 40.81320 3.58233 31757 ft 305 kts 207°
2026-05-05 18:50 40.79345 3.57226 31503 ft 303 kts 208°
2026-05-05 18:50 40.77410 3.56240 31255 ft 301 kts 208°
2026-05-05 18:50 40.75461 3.55247 31005 ft 300 kts 208°
2026-05-05 18:51 40.73517 3.54256 30737 ft 299 kts 208°
2026-05-05 18:51 40.71585 3.53269 30358 ft 297 kts 208°
2026-05-05 18:51 40.69667 3.52292 29946 ft 295 kts 208°
2026-05-05 18:51 40.67760 3.51322 29487 ft 292 kts 208°
2026-05-05 18:52 40.65871 3.50360 29084 ft 289 kts 208°
2026-05-05 18:52 40.64003 3.49410 28676 ft 286 kts 208°
2026-05-05 18:52 40.62148 3.48465 28220 ft 294 kts 208°
2026-05-05 18:52 40.60243 3.47493 27769 ft 292 kts 208°
2026-05-05 18:53 40.58368 3.46544 27472 ft 286 kts 208°
2026-05-05 18:53 40.56523 3.45614 27108 ft 282 kts 208°
2026-05-05 18:53 40.54701 3.44696 26735 ft 279 kts 208°
2026-05-05 18:53 40.52897 3.43785 26371 ft 276 kts 208°
2026-05-05 18:54 40.51113 3.42879 26009 ft 274 kts 209°
2026-05-05 18:54 40.49342 3.41978 25648 ft 272 kts 209°
2026-05-05 18:54 40.47608 3.41099 25312 ft 270 kts 209°
2026-05-05 18:54 40.45854 3.40220 24977 ft 270 kts 207°
2026-05-05 18:55 40.44020 3.39598 24634 ft 277 kts 197°
2026-05-05 18:55 40.42052 3.39565 24252 ft 289 kts 189°
2026-05-05 18:55 40.40038 3.39654 23898 ft 289 kts 188°
2026-05-05 18:55 40.38035 3.39753 23554 ft 288 kts 188°
2026-05-05 18:56 40.36041 3.39858 23159 ft 286 kts 188°
2026-05-05 18:56 40.34059 3.39965 22763 ft 285 kts 188°
2026-05-05 18:56 40.32085 3.40074 22350 ft 283 kts 188°
2026-05-05 18:56 40.30125 3.40181 21896 ft 283 kts 188°
2026-05-05 18:57 40.28173 3.40284 21382 ft 284 kts 187°
2026-05-05 18:57 40.26192 3.40391 20997 ft 286 kts 187°
2026-05-05 18:57 40.24208 3.40499 20618 ft 285 kts 187°
2026-05-05 18:57 40.22229 3.40607 20244 ft 283 kts 187°
2026-05-05 18:58 40.20268 3.40717 19842 ft 281 kts 187°
2026-05-05 18:58 40.18317 3.40826 19506 ft 281 kts 186°
2026-05-05 18:58 40.16371 3.40934 19139 ft 279 kts 186°
2026-05-05 18:58 40.14431 3.41042 18768 ft 278 kts 186°
2026-05-05 18:59 40.12500 3.41146 18404 ft 277 kts 186°
2026-05-05 18:59 40.10601 3.41247 18024 ft 277 kts 186°
2026-05-05 18:59 40.08687 3.41350 17637 ft 275 kts 186°
2026-05-05 18:59 40.06778 3.41456 17275 ft 273 kts 185°
2026-05-05 19:00 40.04859 3.41561 16914 ft 271 kts 185°
2026-05-05 19:00 40.03005 3.41661 16562 ft 269 kts 185°
2026-05-05 19:00 40.01117 3.41761 16200 ft 268 kts 185°
2026-05-05 19:00 39.99287 3.41857 15861 ft 266 kts 185°
2026-05-05 19:01 39.97439 3.41959 15496 ft 265 kts 185°
2026-05-05 19:01 39.92451 3.42235 14565 ft 262 kts 185°
2026-05-05 19:02 39.90630 3.42332 14219 ft 261 kts 184°
2026-05-05 19:02 39.88811 3.42428 13880 ft 261 kts 184°
2026-05-05 19:02 39.87000 3.42523 13519 ft 261 kts 184°
2026-05-05 19:02 39.85215 3.42617 13165 ft 259 kts 184°
2026-05-05 19:03 39.83430 3.42610 12825 ft 252 kts 195°
2026-05-05 19:03 39.81754 3.42058 12485 ft 246 kts 201°
2026-05-05 19:03 39.80125 3.41388 12134 ft 245 kts 202°
2026-05-05 19:03 39.78505 3.40704 11775 ft 244 kts 202°
2026-05-05 19:04 39.76899 3.40022 11419 ft 240 kts 202°
2026-05-05 19:04 39.75326 3.39354 11060 ft 237 kts 202°
2026-05-05 19:04 39.73742 3.38680 10682 ft 241 kts 202°
2026-05-05 19:04 39.72144 3.37998 10427 ft 237 kts 202°
2026-05-05 19:05 39.70630 3.37360 10119 ft 222 kts 202°
2026-05-05 19:05 39.69184 3.36757 9738 ft 216 kts 202°
2026-05-05 19:05 39.67782 3.36172 9239 ft 214 kts 202°
2026-05-05 19:05 39.66367 3.35577 8753 ft 213 kts 202°
2026-05-05 19:06 39.64961 3.34984 8314 ft 212 kts 202°
2026-05-05 19:06 39.63559 3.34397 7982 ft 212 kts 202°
2026-05-05 19:06 39.62161 3.33810 7686 ft 211 kts 202°
2026-05-05 19:06 39.60760 3.33224 7438 ft 212 kts 202°
2026-05-05 19:07 39.59364 3.32642 7195 ft 209 kts 202°
2026-05-05 19:07 39.57995 3.32074 6943 ft 205 kts 202°
2026-05-05 19:07 39.56651 3.31518 6699 ft 201 kts 202°
2026-05-05 19:07 39.55335 3.30977 6453 ft 197 kts 202°
2026-05-05 19:08 39.54041 3.30446 6214 ft 193 kts 202°
2026-05-05 19:08 39.52785 3.29935 5956 ft 191 kts 202°
2026-05-05 19:08 39.51526 3.29423 5697 ft 188 kts 205°
2026-05-05 19:08 39.50520 3.28467 5432 ft 178 kts 242°
2026-05-05 19:09 39.50281 3.26946 5185 ft 176 kts 281°
2026-05-05 19:09 39.50922 3.25617 5027 ft 182 kts 320°
2026-05-05 19:09 39.52044 3.24806 4995 ft 187 kts 330°
2026-05-05 19:09 39.53241 3.24126 4994 ft 189 kts 332°
2026-05-05 19:10 39.54453 3.23463 5000 ft 188 kts 332°
2026-05-05 19:10 39.55658 3.22811 4999 ft 187 kts 332°
2026-05-05 19:10 39.56839 3.22172 5020 ft 186 kts 332°
2026-05-05 19:10 39.58035 3.21525 5003 ft 186 kts 332°
2026-05-05 19:11 39.59230 3.20881 4997 ft 186 kts 332°
2026-05-05 19:11 39.60425 3.20238 4995 ft 186 kts 332°
2026-05-05 19:11 39.61621 3.19595 4994 ft 186 kts 332°
2026-05-05 19:11 39.62823 3.18952 4993 ft 187 kts 332°
2026-05-05 19:12 39.64028 3.18309 4994 ft 187 kts 332°
2026-05-05 19:12 39.65234 3.17665 4993 ft 187 kts 332°
2026-05-05 19:12 39.66438 3.17018 4993 ft 187 kts 332°
2026-05-05 19:12 39.67622 3.16383 4995 ft 186 kts 332°
2026-05-05 19:13 39.68818 3.15738 4992 ft 186 kts 332°
2026-05-05 19:13 39.70013 3.15091 4992 ft 186 kts 332°
2026-05-05 19:13 39.71075 3.14203 4991 ft 180 kts 305°
2026-05-05 19:13 39.71448 3.12716 4993 ft 176 kts 266°
2026-05-05 19:14 39.70940 3.11280 4996 ft 182 kts 231°
2026-05-05 19:14 39.70136 3.10022 4740 ft 178 kts 249°
2026-05-05 19:14 39.70054 3.08472 4449 ft 173 kts 275°
2026-05-05 19:14 39.69851 3.06955 4142 ft 175 kts 246°
2026-05-05 19:15 39.69280 3.05547 3839 ft 176 kts 244°
2026-05-05 19:15 39.68687 3.04184 3546 ft 175 kts 243°
2026-05-05 19:15 39.68068 3.02829 3199 ft 174 kts 242°
2026-05-05 19:15 39.67444 3.01485 2846 ft 174 kts 241°
2026-05-05 19:16 39.66819 3.00147 2497 ft 174 kts 241°
2026-05-05 19:16 39.66192 2.98809 2452 ft 175 kts 241°
2026-05-05 19:16 39.65550 2.97437 2477 ft 179 kts 240°
2026-05-05 19:16 39.64903 2.96058 2489 ft 179 kts 241°
2026-05-05 19:17 39.64258 2.94685 2495 ft 178 kts 240°
2026-05-05 19:17 39.63619 2.93326 2241 ft 176 kts 241°
2026-05-05 19:17 39.62996 2.91999 2139 ft 174 kts 241°
2026-05-05 19:17 39.62391 2.90713 2072 ft 163 kts 240°
2026-05-05 19:18 39.61812 2.89482 2013 ft 158 kts 240°
2026-05-05 19:18 39.61244 2.88272 2003 ft 157 kts 239°
2026-05-05 19:18 39.60675 2.87062 1889 ft 157 kts 239°
2026-05-05 19:18 39.60108 2.85857 1730 ft 156 kts 239°
2026-05-05 19:19 39.59543 2.84657 1532 ft 157 kts 239°
2026-05-05 19:19 39.58975 2.83451 1333 ft 155 kts 240°
2026-05-05 19:19 39.58411 2.82256 1122 ft 157 kts 238°
2026-05-05 19:19 39.57843 2.81049 927 ft 157 kts 238°
2026-05-05 19:20 39.57284 2.79870 762 ft 155 kts 237°
2026-05-05 19:20 39.56701 2.78686 539 ft 156 kts 237°
2026-05-05 19:20 39.56138 2.77497 300 ft 153 kts 239°
2026-05-05 19:20 39.55619 2.76312 113 ft 148 kts 239°
2026-05-05 19:21 39.55103 2.75214 50 ft 138 kts 237°
2026-05-05 19:21 39.54660 2.74300 38 ft 83 kts 239°
2026-05-05 19:21 39.54521 2.73993 38 ft 3 kts 239°
2026-05-05 19:21 39.54446 2.73843 38 ft 27 kts 237°
2026-05-05 19:22 39.54455 2.73749 38 ft 4 kts 323°
2026-05-05 19:22 39.54473 2.73732 38 ft 3 kts 324°
2026-05-05 19:24 39.55091 2.73619 37 ft 0 kts 189°